Location: Asheville, NC
(35.6000°N, 82.5500°W)
Time: 01:41:35
(UTC-04:00)

FO-29 - Pass Details

Date: 05 January 2018
Orbit: 801 x 1321 km, 98.5° (Epoch: 24 April)

Event Time Altitude Azimuth Distance (km) Brightness Sun altitude
Rises 06:32:01 0° 122° (ESE) 4,277 14.5 -13.6°
Reaches altitude 10° 06:35:34 10° 108° (ESE) 3,268 13.8 -12.9°
Maximum altitude 06:40:46 21° 64° (ENE) 2,469 12.2 -11.9°
Drops below altitude 10° 06:45:41 10° 20° (NNE) 3,073 12.1 -11.0°
Sets 06:48:53 0° 5° (N) 3,951 12.5 -10.4°
